| time (UTC) | temp F | wind direction | speed MPH | gust MPH | rain 1hr in | rain 24hr in | rain mn in | humidity % | barometer mb |
| 20260507230041 | 53 | 291 | 0.0 | 1.0 | 0.00 | 0.00 | 0.00 | 57 | 1012.2 |
| 20260507224512 | 54 | 262 | 0.0 | 1.0 | 0.00 | 0.00 | 0.00 | 52 | 1012.2 |
| 20260507223045 | 54 | 314 | 0.0 | 1.0 | 0.00 | 0.00 | 0.00 | 49 | 1012.1 |
| 20260507221507 | 54 | 105 | 0.0 | 1.0 | 0.00 | 0.00 | 0.00 | 48 | 1012.3 |
| 20260507220038 | 54 | 63 | 0.0 | 0.0 | 0.00 | 0.00 | 0.00 | 49 | 1012.3 |
| 20260507214508 | 54 | 144 | 0.0 | 0.0 | 0.00 | 0.00 | 0.00 | 46 | 1012.4 |
| 20260507213040 | 54 | 164 | 0.0 | 1.0 | 0.00 | 0.00 | 0.00 | 46 | 1012.4 |
| 20260507211506 | 55 | 262 | 0.0 | 7.0 | 0.00 | 0.00 | 0.00 | 44 | 1012.4 |
| 20260507210038 | 55 | 9 | 0.0 | 3.0 | 0.00 | 0.00 | 0.00 | 42 | 1012.3 |
| 20260507204606 | 56 | 66 | 0.0 | 0.0 | 0.00 | 0.00 | 0.00 | 44 | 1012.2 |
| 20260507203027 | 57 | 105 | 0.0 | 2.0 | 0.00 | 0.00 | 0.00 | 43 | 1012.4 |
| 20260507201604 | 56 | 65 | 0.0 | 5.0 | 0.00 | 0.00 | 0.00 | 44 | 1012.5 |
| 20260507200015 | 57 | 335 | 0.0 | 4.0 | 0.00 | 0.00 | 0.00 | 41 | 1012.8 |
| 20260507194542 | 57 | 195 | 0.0 | 5.0 | 0.00 | 0.00 | 0.00 | 42 | 1012.9 |
| 20260507193006 | 57 | 50 | 0.0 | 1.0 | 0.00 | 0.00 | 0.00 | 43 | 1013.1 |
| 20260507191536 | 56 | 90 | 0.0 | 7.0 | 0.00 | 0.00 | 0.00 | 44 | 1013.2 |
| 20260507184523 | 57 | 200 | 0.0 | 5.0 | 0.00 | 0.00 | 0.00 | 41 | 1013.4 |
| 20260507183050 | 56 | 55 | 0.0 | 10.0 | 0.00 | 0.00 | 0.00 | 42 | 1013.5 |
| 20260507181517 | 55 | 161 | 0.0 | 5.0 | 0.00 | 0.00 | 0.00 | 46 | 1013.6 |
| 20260507180048 | 55 | 63 | 0.0 | 3.0 | 0.00 | 0.00 | 0.00 | 46 | 1013.7 |
| 20260507174510 | 54 | 209 | 0.0 | 5.0 | 0.00 | 0.00 | 0.00 | 45 | 1014.0 |
| 20260507173036 | 54 | 297 | 0.0 | 1.0 | 0.00 | 0.00 | 0.00 | 47 | 1013.9 |
| 20260507171505 | 53 | 54 | 0.0 | 2.0 | 0.00 | 0.00 | 0.00 | 48 | 1014.4 |
| 20260507170028 | 54 | 9 | 0.0 | 2.0 | 0.00 | 0.00 | 0.00 | 51 | 1014.8 |
| 20260507164501 | 54 | 65 | 0.0 | 3.0 | 0.00 | 0.00 | 0.00 | 47 | 1014.9 |
| 20260507163026 | 53 | 74 | 0.0 | 1.0 | 0.00 | 0.00 | 0.00 | 49 | 1015.0 |
| 20260507161556 | 53 | 168 | 0.0 | 0.0 | 0.00 | 0.00 | 0.00 | 49 | 1014.9 |
| 20260507160018 | 52 | 331 | 0.0 | 7.0 | 0.00 | 0.00 | 0.00 | 52 | 1015.0 |
| 20260507154546 | 51 | 153 | 0.0 | 5.0 | 0.00 | 0.00 | 0.00 | 53 | 1015.0 |
| 20260507153010 | 50 | 116 | 0.0 | 4.0 | 0.00 | 0.00 | 0.00 | 51 | 1015.0 |
| 20260507151535 | 49 | 163 | 0.0 | 10.0 | 0.00 | 0.00 | 0.00 | 50 | 1014.9 |
| 20260507150058 | 48 | 45 | 0.0 | 1.0 | 0.00 | 0.00 | 0.00 | 55 | 1014.8 |
| 20260507144522 | 47 | 44 | 0.0 | 1.0 | 0.00 | 0.00 | 0.00 | 58 | 1014.8 |
| 20260507143050 | 46 | 125 | 0.0 | 2.0 | 0.00 | 0.00 | 0.00 | 55 | 1014.8 |
| 20260507141516 | 46 | 319 | 0.0 | 1.0 | 0.00 | 0.00 | 0.00 | 58 | 1014.9 |
| 20260507140100 | 45 | 87 | 0.0 | 4.0 | 0.00 | 0.00 | 0.00 | 57 | 1015.0 |
| 20260507134512 | 45 | 337 | 0.0 | 1.0 | 0.00 | 0.00 | 0.00 | 58 | 1014.9 |
| 20260507133039 | 44 | 248 | 0.0 | 0.0 | 0.00 | 0.00 | 0.00 | 66 | 1014.9 |
| 20260507131507 | 43 | 224 | 0.0 | 1.0 | 0.00 | 0.00 | 0.00 | 66 | 1014.9 |
| 20260507130038 | 42 | 216 | 0.0 | 1.0 | 0.00 | 0.00 | 0.00 | 70 | 1014.8 |
| 20260507124513 | 42 | 214 | 0.0 | 0.0 | 0.00 | 0.00 | 0.00 | 76 | 1014.8 |
| 20260507123043 | 41 | 191 | 0.0 | 1.0 | 0.00 | 0.00 | 0.00 | 75 | 1015.0 |
| 20260507121513 | 40 | 169 | 0.0 | 0.0 | 0.00 | 0.00 | 0.00 | 76 | 1014.9 |
| 20260507120043 | 39 | 193 | 0.0 | 0.0 | 0.00 | 0.00 | 0.00 | 79 | 1014.8 |
| 20260507114509 | 38 | 146 | 0.0 | 0.0 | 0.00 | 0.00 | 0.00 | 80 | 1014.8 |
| 20260507113041 | 37 | 132 | 0.0 | 0.0 | 0.00 | 0.00 | 0.00 | 81 | 1014.5 |
| 20260507111503 | 37 | 192 | 0.0 | 1.0 | 0.00 | 0.00 | 0.00 | 81 | 1014.3 |
| 20260507110032 | 37 | 170 | 0.0 | 0.0 | 0.00 | 0.00 | 0.00 | 80 | 1014.2 |
| 20260507104558 | 37 | 146 | 0.0 | 0.0 | 0.00 | 0.00 | 0.00 | 80 | 1014.1 |
| 20260507103024 | 38 | 160 | 0.0 | 0.0 | 0.00 | 0.00 | 0.00 | 80 | 1014.2 |
| 20260507101603 | 38 | 241 | 0.0 | 0.0 | 0.00 | 0.00 | 0.00 | 80 | 1014.1 |
| 20260507100028 | 38 | 208 | 0.0 | 0.0 | 0.00 | 0.00 | 0.00 | 79 | 1014.0 |
| 20260507094556 | 38 | 127 | 0.0 | 0.0 | 0.00 | 0.00 | 0.00 | 78 | 1013.9 |
| 20260507093025 | 38 | 281 | 0.0 | 0.0 | 0.00 | 0.00 | 0.00 | 78 | 1013.9 |
| 20260507091600 | 38 | 153 | 0.0 | 0.0 | 0.00 | 0.00 | 0.00 | 78 | 1013.9 |
| 20260507090018 | 38 | 124 | 0.0 | 0.0 | 0.00 | 0.00 | 0.00 | 77 | 1013.8 |
| 20260507084547 | 38 | 223 | 0.0 | 0.0 | 0.00 | 0.00 | 0.00 | 76 | 1013.8 |
| 20260507083016 | 38 | 202 | 0.0 | 0.0 | 0.00 | 0.00 | 0.00 | 76 | 1013.8 |
| 20260507081552 | 39 | 259 | 0.0 | 0.0 | 0.00 | 0.00 | 0.00 | 76 | 1014.0 |
| 20260507080009 | 39 | 135 | 0.0 | 0.0 | 0.00 | 0.00 | 0.00 | 74 | 1013.9 |
| 20260507074540 | 40 | 135 | 0.0 | 0.0 | 0.00 | 0.00 | 0.00 | 73 | 1013.8 |
| 20260507073113 | 41 | 212 | 0.0 | 0.0 | 0.00 | 0.00 | 0.00 | 71 | 1013.9 |
| 20260507071527 | 42 | 172 | 0.0 | 0.0 | 0.00 | 0.00 | 0.00 | 70 | 1013.9 |
| 20260507070135 | 42 | 225 | 0.0 | 0.0 | 0.00 | 0.00 | 0.00 | 69 | 1013.9 |
| 20260507064520 | 42 | 9 | 0.0 | 0.0 | 0.00 | 0.00 | 0.00 | 68 | 1013.9 |
| 20260507063044 | 43 | 200 | 0.0 | 0.0 | 0.00 | 0.00 | 0.00 | 67 | 1014.1 |
| 20260507061525 | 43 | 184 | 0.0 | 0.0 | 0.00 | 0.00 | 0.00 | 66 | 1014.2 |
| 20260507060037 | 44 | 201 | 0.0 | 0.0 | 0.00 | 0.00 | 0.00 | 66 | 1014.1 |
| 20260507054502 | 44 | 150 | 0.0 | 0.0 | 0.00 | 0.00 | 0.00 | 65 | 1014.1 |
| 20260507053034 | 44 | 219 | 0.0 | 0.0 | 0.00 | 0.00 | 0.00 | 65 | 1014.1 |
| 20260507051602 | 45 | 154 | 0.0 | 0.0 | 0.00 | 0.00 | 0.00 | 65 | 1014.1 |
| 20260507050032 | 45 | 166 | 0.0 | 0.0 | 0.00 | 0.00 | 0.00 | 63 | 1014.1 |
| 20260507044602 | 46 | 239 | 0.0 | 0.0 | 0.00 | 0.00 | 0.00 | 61 | 1014.0 |
| 20260507043022 | 47 | 160 | 0.0 | 0.0 | 0.00 | 0.00 | 0.00 | 61 | 1014.0 |
| 20260507041550 | 46 | 131 | 0.0 | 0.0 | 0.00 | 0.00 | 0.00 | 65 | 1013.9 |
| 20260507040013 | 45 | 157 | 0.0 | 0.0 | 0.00 | 0.00 | 0.00 | 66 | 1014.0 |
| 20260507034547 | 45 | 114 | 0.0 | 0.0 | 0.00 | 0.00 | 0.00 | 67 | 1014.0 |
| 20260507033012 | 45 | 114 | 0.0 | 0.0 | 0.00 | 0.00 | 0.00 | 68 | 1014.0 |
| 20260507031542 | 45 | 114 | 0.0 | 0.0 | 0.00 | 0.00 | 0.00 | 66 | 1014.1 |
| 20260507030008 | 46 | 114 | 0.0 | 0.0 | 0.00 | 0.00 | 0.00 | 65 | 1014.0 |
| 20260507024536 | 46 | 114 | 0.0 | 0.0 | 0.00 | 0.00 | 0.00 | 62 | 1014.0 |
| 20260507023002 | 47 | 114 | 0.0 | 0.0 | 0.00 | 0.00 | 0.00 | 61 | 1014.1 |
| 20260507021533 | 47 | 114 | 0.0 | 0.0 | 0.00 | 0.00 | 0.00 | 57 | 1014.1 |
| 20260507020107 | 48 | 114 | 0.0 | 0.0 | 0.00 | 0.00 | 0.00 | 57 | 1014.0 |
| 20260507014528 | 48 | 226 | 0.0 | 0.0 | 0.00 | 0.00 | 0.00 | 58 | 1013.9 |
| 20260507013055 | 48 | 145 | 0.0 | 0.0 | 0.00 | 0.00 | 0.00 | 57 | 1013.8 |
| 20260507011528 | 49 | 145 | 0.0 | 0.0 | 0.00 | 0.00 | 0.00 | 55 | 1013.6 |
| 20260507004517 | 50 | 212 | 0.0 | 0.0 | 0.00 | 0.01 | 0.00 | 50 | 1013.5 |
| 20260507003050 | 50 | 212 | 0.0 | 0.0 | 0.00 | 0.01 | 0.00 | 48 | 1013.4 |
| 20260507001513 | 51 | 110 | 0.0 | 0.0 | 0.00 | 0.01 | 0.00 | 47 | 1013.4 |
| 20260507000043 | 51 | 123 | 0.0 | 0.0 | 0.00 | 0.04 | 0.00 | 43 | 1013.3 |
| 20260506234507 | 51 | 55 | 0.0 | 0.0 | 0.00 | 0.04 | 0.00 | 46 | 1013.3 |
| 20260506233039 | 51 | 39 | 0.0 | 0.0 | 0.00 | 0.04 | 0.00 | 48 | 1013.5 |
| 20260506231512 | 51 | 96 | 0.0 | 0.0 | 0.00 | 0.04 | 0.00 | 48 | 1013.4 |